Theta_e
307 306 304 304 305 305 304 305 305 307 308 308 308 309 311 312 314 312 315 317 317 319 320 317 315 315 314 313 314 314 309 308 304 308 311 311 310 310 310 312 311 311 312
304 304 304 305 305 305 305 306 307 307 308 309 309 310 310 310 313 314 313 314 315 314 314 314 314 314 314 314 312 313 310 311 308 302 306 306 306 308 308 309 309 310 310
305 304 304 305 305 305 306 307 308 308 308 308 309 308 309 307 310 312 312 313 313 314 313 313 313 313 312 311 310 309 307 305 304 302 301 305 307 309 308 311 311 311 310
305 304 304 304 306 305 306 307 307 308 308 310 309 309 309 310 311 309 310 311 312 313 313 312 310 310 307 307 306 305 305 303 305 303 302 302 303 306 307 304 305 309 307
303 301 301 306 306 305 304 306 307 308 309 308 308 308 309 309 307 307 310 311 312 311 310 307 307 305 304 304 305 306 306 303 305 302 302 303 304 304 303 305 306 305 308
302 301 304 305 304 304 305 305 308 308 309 307 305 305 305 307 302 303 306 307 309 307 305 305 304 304 305 304 303 304 304 303 303 302 303 302 303 303 303 302 304 302 299
300 300 301 302 303 302 302 302 302 302 303 304 304 303 303 303 300 302 304 304 304 306 307 307 306 307 308 306 307 307 306 305 305 305 303 303 303 303 304 304 304 303 303
301 301 301 302 301 301 301 301 302 305 307 305 304 307 306 305 300 299 301 309 308 308 308 306 306 306 303 300 303 305 307 308 309 307 307 305 305 305 305 305 304 305 307
300 300 301 301 301 301 301 303 306 308 308 308 309 308 307 306 298 297 300 307 309 307 308 305 305 305 297 296 303 304 306 308 306 304 303 301 300 300 302 304 301 301 299
301 301 301 303 305 302 304 306 309 310 308 306 307 309 304 308 295 296 299 306 307 305 309 307 299 299 296 296 306 305 303 306 306 306 307 306 305 306 304 306 302 299 299
303 303 306 306 306 307 309 309 310 309 309 309 308 309 307 303 302 296 297 304 304 302 302 302 302 297 296 295 297 305 303 304 305 305 304 304 303 305 304 306 306 303 300
304 304 305 308 306 306 309 309 309 310 308 307 307 305 306 308 296 296 296 297 299 304 302 302 303 295 295 295 298 295 297 299 303 301 300 300 302 301 304 304 306 306 306
305 306 307 308 307 307 306 305 304 308 304 304 303 302 302 302 303 297 296 296 299 303 305 300 298 297 297 296 296 296 298 302 300 299 299 300 302 303 304 305 306 306 305
306 306 306 305 304 303 303 302 299 298 299 301 301 300 301 300 299 299 301 303 303 303 304 304 302 300 299 301 302 302 302 301 301 299 299 300 302 302 300 303 300 302 299
305 305 305 305 306 303 299 299 299 297 294 296 298 301 297 297 296 293 293 297 299 298 296 303 301 301 300 300 300 301 301 300 299 300 299 299 299 300 299 301 299 299 297
304 303 303 304 304 305 305 304 290 291 291 290 290 292 298 291 292 291 291 291 291 291 301 300 300 300 299 299 298 299 300 299 300 300 299 299 298 296 297 298 296 299 296
304 305 304 303 304 304 304 303 304 294 291 290 290 290 290 288 291 291 292 292 292 293 301 301 300 300 299 299 298 298 298 299 301 300 299 297 296 295 295 295 296 295 294
306 297 304 304 304 304 304 303 303 302 301 300 291 293 291 291 291 291 292 296 302 301 301 300 300 300 299 298 298 298 299 299 299 299 299 295 295 294 294 293 295 294 294
303 304 305 306 304 302 304 303 302 302 301 301 301 295 296 292 291 291 293 302 301 300 300 299 299 298 298 298 298 298 299 298 298 299 297 295 294 294 293 293 293 291 291
305 297 299 305 304 304 304 303 302 302 302 301 299 299 301 302 302 302 303 302 301 301 300 299 299 299 299 298 298 298 298 297 298 297 294 294 293 293 292 292 293 293 293
307 305 300 304 304 303 304 303 303 302 302 302 301 299 286 298 302 302 302 302 301 301 301 300 299 299 299 299 298 297 297 296 297 296 294 293 293 292 293 294 294 294 294
307 305 304 304 304 303 303 304 303 303 302 301 302 300 289 303 302 302 302 302 302 302 302 301 299 299 299 298 297 297 296 294 296 294 293 293 293 293 293 293 293 293 292
307 305 304 305 305 299 303 304 303 302 303 303 302 302 302 302 302 302 302 302 302 302 302 301 300 299 299 299 298 297 295 294 294 294 291 292 293 292 292 292 293 292 291
307 307 305 304 303 303 303 303 304 297 301 302 302 302 302 303 302 302 302 303 302 302 302 302 301 299 298 298 297 296 296 293 294 295 291 293 292 292 292 293 293 292 292
305 305 305 304 304 304 305 304 304 304 304 303 302 303 302 303 302 302 303 302 302 302 302 302 302 300 299 297 295 294 289 285 290 286 294 295 293 293 293 294 293 293 293
307 306 305 305 305 304 304 304 304 304 303 303 304 304 303 303 302 302 302 302 302 302 301 302 302 301 299 298 294 287 286 286 289 286 294 294 293 293 293 294 294 294 294
Wind_Speed
15 15 13 13 13 11 11 11 10 11 14 13 10 12 10 15 14 10 11 13 13 10 7 4 4 4 5 6 6 6 5 6 7 7 6 4 3 4 6 6 7 7 4
13 13 12 11 11 11 11 12 11 10 10 10 10 12 14 13 14 11 10 9 9 6 2 3 6 5 8 5 4 6 8 7 6 9 6 2 3 3 6 8 7 5 7
13 13 11 11 11 12 12 12 12 12 11 9 10 10 13 11 7 10 9 8 7 7 5 7 10 9 7 8 9 8 8 7 6 3 4 2 4 4 8 7 6 6 8
13 15 15 12 11 10 10 10 11 12 12 11 11 11 8 11 8 10 10 8 8 9 11 10 9 10 9 8 7 7 5 5 4 4 3 4 3 4 4 7 7 4 7
12 11 12 12 11 13 14 14 12 11 10 9 12 12 12 11 9 12 11 11 11 10 10 8 8 8 7 6 5 6 7 5 5 5 5 4 4 4 6 5 5 6 6
12 11 13 16 12 10 12 12 12 11 15 15 13 13 13 10 14 12 10 9 11 9 9 7 5 4 5 6 5 7 8 7 7 4 3 6 6 7 8 8 7 8 6
10 11 11 10 11 11 11 11 12 11 10 11 10 9 10 13 16 13 12 9 8 6 6 7 7 6 8 9 6 9 9 7 10 9 5 5 8 8 8 10 7 7 6
9 9 10 11 10 9 9 9 9 8 9 10 8 11 11 10 13 12 13 9 7 6 6 10 11 10 11 11 11 10 8 8 8 5 6 7 8 9 9 11 10 8 7
8 9 9 8 8 7 8 9 7 7 8 8 9 9 12 11 12 14 15 11 3 4 7 12 12 12 13 12 10 11 9 9 6 3 5 10 9 9 10 8 7 8 7
8 8 6 4 5 5 5 5 5 5 4 4 7 9 12 11 12 13 13 7 8 9 8 7 14 10 12 11 10 11 10 10 5 7 8 6 6 5 7 4 7 7 6
5 3 2 4 3 4 4 5 4 3 3 5 6 8 11 8 8 8 13 10 11 9 10 9 9 5 10 13 9 10 8 9 7 7 5 5 7 8 7 6 5 6 6
3 4 3 2 4 3 6 7 8 9 7 5 7 8 8 6 7 5 6 7 12 9 9 8 7 9 8 11 9 9 9 9 6 10 8 7 7 7 7 7 6 5 3
5 5 7 9 10 8 10 11 9 10 8 9 9 8 8 10 11 5 6 7 7 7 8 6 10 13 15 12 13 11 5 8 8 9 8 7 7 6 5 7 7 9 5
7 6 7 9 10 11 9 9 10 10 10 10 9 9 9 9 10 11 12 11 11 8 12 6 8 10 10 10 9 6 10 9 6 8 8 7 9 8 7 8 8 7 6
6 5 5 6 6 9 9 8 8 8 7 8 8 7 9 8 9 10 9 9 10 11 14 8 8 9 10 10 10 10 10 10 11 7 8 10 8 9 8 7 7 8 4
5 6 5 5 4 4 5 6 5 4 1 8 6 9 5 3 8 11 12 15 17 17 8 9 9 10 11 11 11 11 10 11 11 10 10 8 10 9 9 8 7 7 5
5 6 3 3 4 4 5 5 6 4 3 3 7 4 3 7 10 11 13 10 16 16 9 9 10 11 11 11 11 11 12 11 12 11 9 9 9 7 8 6 7 6 6
3 5 3 5 5 5 4 4 5 6 3 6 7 3 6 6 10 14 17 13 9 9 10 10 11 11 11 11 12 12 12 11 11 8 10 8 8 7 6 7 8 6 7
6 5 6 2 4 3 5 5 5 5 6 6 7 3 7 10 10 13 17 9 10 10 11 11 11 11 11 11 12 12 12 12 9 10 10 8 7 7 7 6 6 7 6
6 2 8 6 4 4 4 5 5 4 5 5 7 8 7 10 7 9 8 9 9 10 10 11 11 11 11 12 12 12 12 12 10 10 9 8 8 7 7 7 6 5 4
1 4 3 6 4 5 5 5 4 5 5 5 5 5 7 8 7 8 8 9 9 10 10 11 11 12 12 12 13 13 13 14 12 10 8 8 8 7 7 6 5 4 5
1 3 4 4 4 5 7 5 5 5 5 6 5 5 6 4 7 7 8 8 9 10 9 10 11 11 12 12 13 14 14 14 12 10 11 9 7 7 6 6 5 4 4
2 3 4 3 3 2 5 4 6 8 6 5 6 6 6 6 6 7 7 7 8 8 9 10 11 11 12 12 13 13 13 13 12 9 9 9 8 7 6 5 4 4 3
2 3 4 4 6 7 5 6 3 3 4 6 5 5 5 5 5 6 6 6 7 8 8 9 10 14 13 13 12 13 12 11 11 11 10 9 8 8 5 4 3 4 4
6 5 4 4 5 5 3 4 5 5 5 5 5 6 6 5 5 5 5 7 6 7 8 9 9 14 16 18 19 20 17 14 13 10 8 9 10 10 6 4 4 4 5
2 3 4 4 5 5 5 6 6 6 6 5 4 5 5 5 5 5 5 6 7 6 7 8 10 15 17 15 18 15 14 16 14 13 8 8 8 8 7 6 7 3 5
Wind_Direction
353 349 347 341 335 330 330 325 324 322 315 306 314 300 303 332 302 296 294 289 282 281 275 293 302 235 277 279 272 292 278 272 285 299 318 331 309 344 305 286 284 276 261
352 342 340 333 338 334 332 327 327 322 305 311 320 328 327 351 339 329 322 330 352 5 349 300 299 304 282 313 266 291 314 307 340 328 321 329 291 286 274 276 268 281 278
349 345 348 344 349 346 342 335 325 330 339 344 339 336 337 327 334 3 2 353 330 340 327 318 343 357 356 354 347 346 346 347 328 306 308 272 256 248 266 261 270 250 259
358 354 349 345 344 341 328 330 341 336 341 334 346 341 328 307 4 358 335 320 327 350 27 44 27 24 9 359 348 340 342 298 278 271 289 312 302 307 303 315 303 289 277
354 351 344 333 341 5 359 356 357 332 358 359 356 353 346 333 22 349 335 326 4 61 53 47 38 26 14 8 348 353 328 322 314 353 333 324 325 326 320 332 299 317 298
348 356 344 355 13 353 5 355 2 9 15 17 8 3 1 355 350 356 356 50 43 45 40 37 24 7 339 285 303 301 309 334 344 344 331 330 2 355 350 336 324 320 329
359 355 358 359 11 11 11 11 12 14 11 17 21 34 40 44 30 47 52 58 64 71 55 36 16 12 339 350 316 268 262 294 299 302 325 327 328 5 334 324 320 315 306
359 2 10 11 16 12 16 24 16 13 25 37 36 39 50 35 2 358 329 67 60 57 43 28 4 8 22 343 323 304 288 258 258 287 343 344 334 331 331 329 322 298 283
9 13 18 11 14 8 17 23 22 21 42 68 67 52 53 39 1 354 349 325 94 61 74 50 27 6 354 331 315 318 321 357 123 81 314 309 291 281 282 310 331 329 330
18 22 19 5 46 23 8 15 346 7 47 64 73 49 32 26 19 348 349 341 20 16 80 86 65 7 331 324 352 0 347 15 13 319 335 318 291 277 214 265 335 330 334
44 65 80 30 27 4 352 19 325 338 40 31 50 62 71 37 48 6 6 18 356 25 20 13 30 338 320 322 336 10 355 325 329 335 357 332 343 352 9 356 339 330 323
35 50 43 50 79 34 9 25 28 3 37 70 50 40 44 76 16 31 9 26 351 18 30 30 13 308 275 296 338 320 293 290 336 22 3 353 345 0 349 336 326 326 353
126 109 44 54 31 28 46 22 14 11 23 20 17 40 43 28 13 338 274 312 338 335 350 324 270 271 290 231 246 275 297 25 23 352 358 351 345 332 328 339 19 337 85
64 69 76 70 64 39 22 52 35 20 7 13 17 13 28 34 19 6 357 6 356 350 358 323 337 292 270 293 358 345 14 7 9 28 348 352 346 344 4 0 353 349 354
66 41 73 80 76 101 63 29 51 49 29 12 4 17 8 16 9 321 317 339 339 331 320 10 8 7 7 7 5 5 9 7 347 28 16 344 359 351 346 350 5 328 336
48 76 11 35 42 51 121 137 71 70 190 92 44 28 54 47 314 309 311 313 308 308 336 9 11 7 5 3 359 4 2 12 359 15 14 354 353 346 336 350 333 317 336
43 347 67 23 26 21 17 1 133 149 222 129 118 95 358 313 312 314 308 296 285 303 17 10 8 4 2 0 358 1 357 6 15 17 6 1 352 332 327 337 319 352 337
91 236 353 12 12 353 16 3 29 19 64 156 208 237 200 263 296 306 309 326 24 19 7 10 5 2 2 1 357 360 355 2 20 8 12 355 333 328 323 328 327 336 336
2 19 330 20 40 319 350 18 29 29 21 28 16 203 231 236 255 273 291 11 16 16 7 6 8 2 2 2 356 357 358 359 23 16 356 335 334 332 327 327 325 329 322
127 299 281 317 10 11 12 10 19 27 23 39 31 7 0 336 23 18 22 16 13 18 10 2 9 5 2 1 357 356 1 358 4 22 348 340 337 329 325 324 324 324 339
295 169 287 290 19 4 5 7 8 5 9 26 78 44 296 301 20 21 17 15 15 13 14 3 8 9 4 2 360 360 3 358 354 13 339 335 333 331 332 326 329 341 15
310 355 341 353 1 30 346 345 358 360 10 7 10 115 253 309 17 18 19 11 16 12 16 11 9 13 7 3 3 357 5 357 351 358 336 329 332 335 332 333 340 30 28
284 315 310 332 15 235 248 352 8 351 352 13 4 7 7 13 15 15 14 13 10 19 12 16 17 13 14 8 6 1 6 355 339 348 331 327 339 343 337 346 9 41 38
274 326 325 339 35 323 12 333 11 207 305 357 8 357 4 0 8 16 6 6 18 15 22 23 27 19 18 13 8 3 4 350 334 344 332 328 339 340 341 355 26 57 69
8 354 335 347 342 344 335 318 343 342 341 356 351 353 355 351 3 10 6 4 6 26 22 20 31 24 19 17 11 3 351 332 345 332 341 347 347 358 350 5 40 57 63
324 28 328 332 346 344 342 341 339 338 348 340 349 345 341 345 2 1 1 25 350 19 20 28 30 40 19 19 9 348 339 335 355 343 351 358 2 10 1 22 57 67 81